Change the Weather History Date:

Wednesday, June 13, 2012

  Actual Average Record
Temperature  
Mean Temperature 70 °F 64 °F  
Max Temperature 83 °F 76 °F 98 °F (1959)
Min Temperature 56 °F 52 °F 32 °F (1969)
Degree Days  
Heating Degree Days 0 3  
Month to date heating degree days 29 61  
Since 1 June heating degree days 29 61  
Since 1 July heating degree days 5860 6747  
Cooling Degree Days 5 2  
Month to date cooling degree days 34 21  
Year to date cooling degree days 68 38  
Since 1 June cooling degree days 34 21  
Growing Degree Days 20 (Base 50)    
Moisture  
Dew Point 38 °F    
Average Humidity 36    
Maximum Humidity 57    
Minimum Humidity 14    
Precipitation  
Precipitation T in 0.07 in 2.27 in (2001)
Month to date precipitation 0.21 1.00  
Year to date precipitation 4.36 6.86  
Snow  
Snow 0.00 in 0.00 in T in (1991)
Month to date snowfall T 0.0  
Since 1 June snowfall T 0.0  
Since 1 July snowfall 38.6 55.0  
Snow Depth 0.00 in    
Sea Level Pressure  
Sea Level Pressure 29.71 in    
Wind  
Wind Speed 14 mph (WNW)    
Max Wind Speed 36 mph    
Max Gust Speed 43 mph    
Visibility 10 miles    
Events      
T = Trace of Precipitation, MM = Missing Value Source: NWS Daily Summary

Daily Weather History Graph

Daily Weather History Graph

Search for Another Location

Airport or City:

Trip Planner

Search our weather history database for the weather conditions in past years. The results will help you decide how hot, cold, wet, or windy it might be!

Date:

Astronomy

Jun. 13, 2012 Rise Set
Actual Time 5:23 AM MDT 9:05 PM MDT
Civil Twilight 4:45 AM MDT 9:43 PM MDT
Nautical Twilight 3:54 AM MDT 10:34 PM MDT
Astronomical Twilight 2:44 AM MDT 11:45 PM MDT
Moon 1:52 AM MDT (6/13) 3:43 PM MDT (6/13)
Length of Visible Light 16h 58m
Length of Day
15h 41m
Waning Crescent, 28% of the Moon is Illuminated
Jun 13
Waning Crescent
Jun 19
New
Jun 26
First Quarter
Jul 3
Full
Jul 10
Last Quarter

Hourly Weather History & Observations

Time (MDT) Temp. Dew Point Humidity Pressure Visibility Wind Dir Wind Speed Gust Speed Precip Events Conditions
12:53 AM 68.0 °F 41.0 °F 37% 29.75 in 10.0 mi NW 13.8 mph - N/A   Mostly Cloudy
1:53 AM 66.9 °F 41.0 °F 39% 29.74 in 10.0 mi Variable 3.5 mph - N/A   Partly Cloudy
2:53 AM 61.0 °F 42.1 °F 50% 29.72 in 10.0 mi South 6.9 mph - N/A   Clear
3:53 AM 62.6 °F 42.8 °F 48% 29.79 in 10.0 mi SW 9.2 mph - N/A   Partly Cloudy
4:53 AM 57.0 °F 43.0 °F 59% 29.69 in 10.0 mi SSW 8.1 mph - N/A   Scattered Clouds
5:53 AM 57.9 °F 43.0 °F 58% 29.68 in 10.0 mi West 6.9 mph - N/A   Scattered Clouds
6:53 AM 64.9 °F 43.0 °F 45% 29.72 in 10.0 mi WNW 25.3 mph 34.5 mph N/A   Mostly Cloudy
7:53 AM 64.0 °F 46.0 °F 52% 29.72 in 10.0 mi NW 20.7 mph 28.8 mph N/A   Scattered Clouds
8:53 AM 69.1 °F 44.1 °F 40% 29.72 in 10.0 mi WSW 13.8 mph 24.2 mph N/A   Partly Cloudy
9:17 AM 69.8 °F 42.8 °F 38% 29.81 in 10.0 mi WNW 20.7 mph 28.8 mph N/A   Partly Cloudy
9:53 AM 71.1 °F 42.1 °F 35% 29.70 in 10.0 mi West 17.3 mph 28.8 mph N/A   Partly Cloudy
10:53 AM 73.0 °F 39.9 °F 30% 29.68 in 10.0 mi NNW 21.9 mph 31.1 mph N/A   Partly Cloudy
11:53 AM 75.0 °F 39.9 °F 28% 29.68 in 10.0 mi NW 17.3 mph 26.5 mph N/A   Partly Cloudy
12:53 PM 78.1 °F 34.0 °F 20% 29.66 in 10.0 mi WNW 17.3 mph 27.6 mph N/A   Partly Cloudy
1:53 PM 82.0 °F 28.0 °F 14% 29.62 in 10.0 mi WNW 20.7 mph 35.7 mph N/A   Partly Cloudy
2:53 PM 79.0 °F 30.0 °F 17% 29.63 in 10.0 mi WNW 20.7 mph 29.9 mph N/A   Scattered Clouds
3:53 PM 77.0 °F 32.0 °F 19% 29.65 in 10.0 mi West 12.7 mph 27.6 mph N/A   Mostly Cloudy
4:25 PM 71.6 °F 37.4 °F 29% 29.75 in 10.0 mi NNW 34.5 mph 42.6 mph N/A   Mostly Cloudy
4:53 PM 70.0 °F 37.0 °F 30% 29.71 in 10.0 mi NNW 17.3 mph - N/A   Mostly Cloudy
5:53 PM 70.0 °F 37.0 °F 30% 29.70 in 10.0 mi North 10.4 mph - 0.00 in   Mostly Cloudy
6:53 PM 73.0 °F 37.9 °F 28% 29.68 in 10.0 mi NNW 16.1 mph 25.3 mph N/A   Scattered Clouds
7:53 PM 70.0 °F 34.0 °F 27% 29.72 in 10.0 mi NNW 15.0 mph - N/A   Mostly Cloudy
8:53 PM 68.0 °F 34.0 °F 28% 29.73 in 10.0 mi NNW 10.4 mph - N/A   Mostly Cloudy
9:53 PM 66.0 °F 35.1 °F 32% 29.76 in 10.0 mi West 8.1 mph - N/A   Mostly Cloudy
10:53 PM 63.0 °F 37.9 °F 40% 29.78 in 10.0 mi WSW 8.1 mph - 0.00 in   Mostly Cloudy
11:53 PM 61.0 °F 33.1 °F 35% 29.80 in 10.0 mi NW 10.4 mph - N/A   Partly Cloudy